Back to catalog

IRIDIUM 108

AliveCommunicationsPO
NORAD 41924·PAYLOAD·🇺🇸 United States

Launched Jan 14, 2017 from Vandenberg Space Force Base

Loading…

Next Passes (next 24 hours)

TLE

FreshSource: CelesTrak SupGP

Epoch: Sep 14, 2026, 10:03 UTC

1 41924C 17003H   26257.41909722 -.00004464  00000+0 -15962-2 0  2578
2 41924  86.4010  19.4374 0002137  97.8922 317.1642 14.34222927    10

Track IRIDIUM 108 in real time with AllMySat

Download on the App Store